EST,Max TemperatureF,Mean TemperatureF,Min TemperatureF,Max Dew PointF,MeanDew PointF,Min DewpointF,Max Humidity, Mean Humidity, Min Humidity, Max Sea Level PressureIn, Mean Sea Level PressureIn, Min Sea Level PressureIn, Max VisibilityMiles, Mean VisibilityMiles, Min VisibilityMiles, Max Wind SpeedMPH, Mean Wind SpeedMPH, Max Gust SpeedMPH,PrecipitationIn, CloudCover, Events, WindDirDegrees
2012-11-1,51,42,34,38,37,33,96,73,58,29.70,29.66,29.63,10,10,10,14,5,20,0.00,6,,264
2012-11-2,53,48,43,37,34,32,74,61,49,29.85,29.74,29.70,10,10,10,18,10,24,0.00,6,,285
2012-11-3,48,44,43,34,30,28,68,56,48,30.02,29.93,29.85,10,10,10,20,11,30,0.00,8,,302
2012-11-4,46,37,28,30,29,27,92,65,51,30.06,30.02,30.00,10,10,10,15,7,22,0.00,4,,293
2012-11-5,45,35,25,29,26,23,92,64,46,30.18,30.08,30.00,10,10,9,14,7,21,0.00,4,,319
2012-11-6,48,38,28,29,26,22,78,61,44,30.21,30.13,30.00,10,10,10,12,6,17,0.00,6,,32
2012-11-7,41,37,33,34,31,27,96,88,60,29.95,29.85,29.82,10,5,1,15,12,24,0.82,8,Rain-Snow,346
2012-11-8,50,42,33,32,26,16,96,64,27,29.99,29.85,29.81,10,9,6,18,8,29,0.06,4,Snow,315
2012-11-9,54,43,32,33,27,18,92,61,40,30.24,30.13,30.00,10,10,8,15,6,21,0.00,0,,301
2012-11-10,60,44,28,39,34,27,96,73,39,30.42,30.33,30.24,10,8,3,6,1,,0.00,1,,247
2012-11-11,64,50,35,49,42,36,100,87,54,30.49,30.44,30.40,10,5,0,8,1,,0.00,1,Fog,175
2012-11-12,68,54,41,57,50,39,100,89,61,30.46,30.38,30.19,10,6,0,10,2,22,0.00,2,Fog,168
2012-11-13,60,47,34,57,43,29,100,87,73,30.45,30.30,30.15,10,9,3,24,9,32,0.19,6,Rain,326
2012-11-14,48,39,30,32,28,25,85,66,41,30.52,30.47,30.44,10,10,10,13,6,21,0.00,2,,10
2012-11-15,48,42,35,32,30,28,79,65,50,30.42,30.36,30.28,10,10,10,12,7,,0.00,6,,23
2012-11-16,48,38,26,31,27,23,92,68,38,30.43,30.34,30.29,10,10,10,10,5,,0.00,1,,353
2012-11-17,54,42,30,37,31,25,96,72,45,30.61,30.55,30.44,10,10,9,13,6,,0.00,0,,31
2012-11-18,52,44,36,39,36,32,86,74,57,30.63,30.57,30.49,10,9,7,14,7,,0.00,5,,37
2012-11-19,53,48,42,43,40,37,87,77,64,30.46,30.34,30.22,10,10,10,15,10,18,0.00,5,,30
2012-11-20,52,46,39,43,37,28,87,71,40,30.20,30.16,30.10,10,10,10,9,6,,0.00,3,,35
2012-11-21,54,41,28,38,32,26,96,72,34,30.22,30.17,30.12,10,10,10,13,4,17,0.00,1,,18
2012-11-22,55,42,28,41,34,26,96,80,55,30.26,30.20,30.15,10,9,6,13,4,,0.00,0,,15
2012-11-23,54,41,28,43,34,27,100,91,57,30.15,30.02,29.73,10,4,0,8,1,,0.00,6,Fog-Rain,237
2012-11-24,48,42,35,30,21,18,59,47,38,29.97,29.87,29.75,10,10,10,22,15,34,0.00,3,,293
2012-11-25,41,32,23,22,21,19,88,63,45,30.04,29.99,29.96,10,10,10,16,8,24,0.00,1,,269
2012-11-26,50,36,21,29,24,19,92,70,35,30.26,30.15,30.00,10,10,9,12,2,16,0.00,0,,289
2012-11-27,41,36,32,39,36,28,100,92,70,30.26,30.20,30.14,10,6,2,13,5,,0.37,8,Rain,20
2012-11-28,42,32,21,33,26,20,92,76,47,30.36,30.27,30.20,10,9,7,15,6,22,0.00,3,,313
2012-11-29,46,32,19,28,23,17,96,74,39,30.43,30.38,30.35,10,9,6,12,5,20,0.00,0,,258
2012-11-30,51,37,23,38,29,21,100,84,43,30.40,30.36,30.33,10,5,0,5,0,,0.00,2,Fog,100